Location: ????????
(55.3939°N, 37.4780°E)
Time: 20:57:42
(UTC+00:00)

MOS 1 - Pass Details

Date: 14 April 2026
Orbit: 877 x 888 km, 98.8° (Epoch: 11 May)

Event Time Altitude Azimuth Distance (km) Brightness Sun altitude
Rises 17:06:15 0° 153° (SSE) 3,465 6.9 -5.2°
Reaches altitude 10° 17:08:38 10° 152° (SSE) 2,531 6.2 -5.5°
Maximum altitude 17:14:14 72° 69° (ENE) 926 4.3 -6.2°
Drops below altitude 10° 17:19:53 10° 346° (NNW) 2,553 7.4 -6.9°
Sets 17:22:18 0° 345° (NNW) 3,497 8.1 -7.2°
